TimeEST,TemperatureF,Dew PointF,Humidity,Sea Level PressureIn,VisibilityMPH,Wind Direction,Wind SpeedMPH,Gust SpeedMPH,PrecipitationIn,Events,Conditions,WindDirDegrees,DateUTC
12:14 AM,10.0,0.9,66,30.18,10.0,WNW,6.9,-,N/A,,Overcast,290,2013-01-23 05:14:00
12:35 AM,10.2,1.2,67,30.18,7.0,WNW,4.6,-,N/A,Snow,Light Snow,290,2013-01-23 05:35:00
12:54 AM,10.4,1.0,66,30.18,10.0,West,6.9,-,N/A,,Overcast,280,2013-01-23 05:54:00
1:14 AM,10.4,0.3,64,30.18,10.0,WNW,8.1,-,N/A,,Overcast,290,2013-01-23 06:14:00
1:35 AM,10.4,0.7,65,30.18,10.0,West,4.6,-,N/A,Snow,Light Snow,270,2013-01-23 06:35:00
1:54 AM,10.4,3.9,75,30.17,2.0,WSW,5.8,-,N/A,Snow,Light Snow,240,2013-01-23 06:54:00
2:14 AM,10.4,4.1,76,30.17,5.0,West,3.5,-,N/A,Snow,Light Snow,270,2013-01-23 07:14:00
2:34 AM,10.6,2.5,70,30.17,10.0,WSW,4.6,-,N/A,,Overcast,250,2013-01-23 07:34:00
2:54 AM,10.4,5.0,79,30.18,2.0,WSW,5.8,-,N/A,Snow,Light Snow,240,2013-01-23 07:54:00
3:15 AM,10.2,5.5,81,30.17,1.8,WSW,5.8,-,N/A,Snow,Light Snow,250,2013-01-23 08:15:00
3:34 AM,10.4,4.6,78,30.17,3.0,West,3.5,-,N/A,Snow,Light Snow,270,2013-01-23 08:34:00
3:55 AM,10.4,4.1,76,30.16,7.0,SW,4.6,-,N/A,Snow,Light Snow,230,2013-01-23 08:55:00
4:15 AM,10.4,4.8,78,30.15,3.0,SW,4.6,-,N/A,Snow,Light Snow,230,2013-01-23 09:15:00
4:34 AM,10.2,5.4,81,30.15,2.0,South,6.9,-,N/A,Snow,Light Snow,190,2013-01-23 09:34:00
4:55 AM,9.1,4.8,83,30.14,2.5,South,5.8,-,N/A,Snow,Light Snow,180,2013-01-23 09:55:00
5:15 AM,8.4,3.9,82,30.13,4.0,South,5.8,-,N/A,Snow,Light Snow,190,2013-01-23 10:15:00
5:34 AM,8.6,4.1,82,30.13,2.5,South,9.2,-,N/A,Snow,Light Snow,180,2013-01-23 10:34:00
5:55 AM,7.5,2.8,81,30.13,3.0,South,5.8,-,N/A,Snow,Light Snow,190,2013-01-23 10:55:00
6:14 AM,7.2,2.1,80,30.13,4.0,South,6.9,-,N/A,Snow,Light Snow,190,2013-01-23 11:14:00
6:34 AM,7.5,2.8,81,30.13,1.8,South,9.2,-,N/A,Snow,Light Snow,190,2013-01-23 11:34:00
6:55 AM,7.5,3.2,82,30.12,1.8,South,8.1,-,N/A,Snow,Light Snow,180,2013-01-23 11:55:00
7:14 AM,7.7,3.2,82,30.12,2.0,South,6.9,-,N/A,Snow,Light Snow,180,2013-01-23 12:14:00
7:35 AM,7.7,3.9,85,30.11,1.2,Calm,Calm,-,N/A,Snow,Light Snow,0,2013-01-23 12:35:00
7:55 AM,8.6,4.8,85,30.10,1.2,South,4.6,-,N/A,Snow,Snow,180,2013-01-23 12:55:00
8:14 AM,10.4,6.3,83,30.10,1.8,WSW,3.5,-,N/A,Snow,Light Snow,250,2013-01-23 13:14:00
8:35 AM,10.9,6.4,82,30.10,0.8,WSW,5.8,-,N/A,Snow,Light Snow,240,2013-01-23 13:35:00
8:55 AM,10.9,6.1,81,30.09,1.0,SW,9.2,-,N/A,Snow,Light Snow,230,2013-01-23 13:55:00
9:14 AM,10.4,5.0,79,30.10,1.2,SW,9.2,17.3,N/A,Snow,Light Snow,230,2013-01-23 14:14:00
9:35 AM,10.4,4.1,76,30.10,4.0,SW,4.6,-,N/A,,Haze,220,2013-01-23 14:35:00
9:55 AM,10.9,3.6,72,30.10,10.0,SW,11.5,-,N/A,,Overcast,230,2013-01-23 14:55:00
10:14 AM,11.3,2.8,69,30.10,10.0,WSW,9.2,-,N/A,,Overcast,240,2013-01-23 15:14:00
10:35 AM,11.3,3.0,69,30.09,10.0,SW,8.1,18.4,N/A,,Overcast,220,2013-01-23 15:35:00
10:54 AM,12.0,3.6,69,30.10,10.0,SW,6.9,18.4,N/A,,Overcast,230,2013-01-23 15:54:00
11:15 AM,12.2,3.0,67,30.10,10.0,SW,6.9,16.1,N/A,,Overcast,220,2013-01-23 16:15:00
11:35 AM,12.2,3.6,68,30.09,5.0,SW,9.2,19.6,N/A,,Haze,230,2013-01-23 16:35:00
11:54 AM,12.9,4.1,68,30.08,10.0,WSW,8.1,-,N/A,,Overcast,240,2013-01-23 16:54:00
12:15 PM,12.9,5.5,72,30.07,2.0,SW,12.7,19.6,N/A,,Overcast,230,2013-01-23 17:15:00
12:35 PM,13.1,5.7,72,30.06,2.5,SW,8.1,-,N/A,,Overcast,230,2013-01-23 17:35:00
12:54 PM,13.5,6.8,75,30.06,1.8,WSW,6.9,-,N/A,,Overcast,240,2013-01-23 17:54:00
1:15 PM,13.6,6.8,74,30.05,2.0,SW,8.1,-,N/A,,Overcast,230,2013-01-23 18:15:00
1:35 PM,13.6,7.5,77,30.03,1.2,WSW,5.8,-,N/A,,Overcast,240,2013-01-23 18:35:00
1:55 PM,13.1,7.7,79,30.02,1.0,SW,11.5,-,N/A,,Overcast,230,2013-01-23 18:55:00
2:15 PM,13.8,7.5,76,30.02,1.5,WSW,9.2,-,N/A,,Overcast,240,2013-01-23 19:15:00
2:34 PM,13.6,7.7,77,30.01,1.0,SW,9.2,18.4,N/A,,Overcast,230,2013-01-23 19:34:00
2:55 PM,13.8,7.3,75,30.01,1.2,WSW,8.1,-,N/A,,Overcast,240,2013-01-23 19:55:00
3:14 PM,14.0,7.0,74,30.01,2.0,WSW,6.9,-,N/A,,Overcast,240,2013-01-23 20:14:00
3:35 PM,14.0,6.8,73,30.01,2.5,WSW,5.8,-,N/A,,Overcast,240,2013-01-23 20:35:00
3:54 PM,14.0,6.4,72,30.01,2.5,SW,6.9,17.3,N/A,,Overcast,230,2013-01-23 20:54:00
4:15 PM,13.8,6.8,74,30.01,3.0,WSW,4.6,-,N/A,,Overcast,240,2013-01-23 21:15:00
4:34 PM,13.8,7.9,77,30.01,2.0,SW,5.8,-,N/A,,Overcast,230,2013-01-23 21:34:00
4:55 PM,13.8,8.2,78,30.01,1.8,WSW,6.9,-,N/A,,Overcast,240,2013-01-23 21:55:00
5:15 PM,13.5,8.2,80,30.01,2.0,WSW,5.8,-,N/A,,Overcast,240,2013-01-23 22:15:00
5:34 PM,13.6,8.6,80,30.02,2.5,SSW,4.6,-,N/A,,Overcast,200,2013-01-23 22:34:00
5:55 PM,14.0,9.7,83,30.02,0.8,West,5.8,-,N/A,,Overcast,260,2013-01-23 22:55:00
6:15 PM,14.0,10.4,86,30.03,1.2,Calm,Calm,-,N/A,,Overcast,0,2013-01-23 23:15:00
6:35 PM,14.0,10.4,86,30.03,1.5,West,3.5,-,N/A,,Overcast,270,2013-01-23 23:35:00
6:55 PM,14.0,10.4,86,30.03,1.5,West,4.6,-,N/A,,Overcast,280,2013-01-23 23:55:00
7:15 PM,13.8,10.2,86,30.04,1.2,NNW,5.8,-,N/A,,Overcast,330,2013-01-24 00:15:00
7:35 PM,13.6,10.0,86,30.05,1.5,NNW,4.6,-,N/A,,Overcast,330,2013-01-24 00:35:00
7:55 PM,13.6,9.5,84,30.06,2.5,North,4.6,-,N/A,,Overcast,350,2013-01-24 00:55:00
8:14 PM,13.1,9.1,84,30.07,3.0,Calm,Calm,-,N/A,,Overcast,0,2013-01-24 01:14:00
8:35 PM,12.7,8.1,82,30.07,10.0,Calm,Calm,-,N/A,,Overcast,0,2013-01-24 01:35:00
8:55 PM,12.2,7.2,80,30.08,10.0,Calm,Calm,-,N/A,,Overcast,0,2013-01-24 01:55:00
9:14 PM,12.2,7.5,82,30.09,4.0,Calm,Calm,-,N/A,,Overcast,0,2013-01-24 02:14:00
9:35 PM,11.8,7.7,83,30.11,10.0,Calm,Calm,-,N/A,,Overcast,0,2013-01-24 02:35:00
9:55 PM,11.5,7.3,83,30.12,3.0,NE,6.9,-,N/A,,Overcast,50,2013-01-24 02:55:00
10:15 PM,12.2,7.7,82,30.13,2.5,NE,5.8,-,N/A,,Overcast,40,2013-01-24 03:15:00
10:35 PM,11.5,7.2,83,30.14,2.0,Calm,Calm,-,N/A,,Overcast,0,2013-01-24 03:35:00
10:54 PM,10.0,5.5,82,30.15,10.0,NE,5.8,-,N/A,,Mostly Cloudy,50,2013-01-24 03:54:00
11:14 PM,8.4,4.1,83,30.15,10.0,NNE,3.5,-,N/A,,Scattered Clouds,20,2013-01-24 04:14:00
11:35 PM,7.7,3.4,83,30.17,10.0,Calm,Calm,-,N/A,,Clear,0,2013-01-24 04:35:00
11:54 PM,7.0,2.7,82,30.19,10.0,North,3.5,-,N/A,,Clear,10,2013-01-24 04:54:00